Location: Spangle
(47.4302°N, 117.3779°W)
Time: 12:13:02
(UTC+00:00)

ISS - Pass Details

Date: 19 April 2026
Orbit: 414 x 424 km, 51.6° (Epoch: 11 May)

Event Time Altitude Azimuth Distance (km) Brightness Sun altitude
Exits shadow 11:58:00 - 203° (SSW) 1,639 -1.2 -9.4°
Reaches altitude 10° 11:58:25 10° 199° (SSW) 1,492 -1.4 -9.4°
Maximum altitude 12:01:16 26° 141° (SE) 865 -2.0 -8.9°
Drops below altitude 10° 12:04:09 10° 83° (E) 1,506 0.4 -8.5°
Sets 12:06:27 0° 70° (ENE) 2,377 2.4 -8.2°
